Preview of NWS' New Version of Forecast
This preview is not operational and should not be used for support decisions.

Regional Weather Roundup (RWR)

Issued by National Weather Service (NWS)

                            
000
ASUS43 KDMX 190406
RWRIA 

WEATHER ROUNDUP FOR IOWA
NATIONAL WEATHER SERVICE DES MOINES IA
1100 PM CDT MON MAR 18 2019

NOTE: "FAIR" INDICATES FEW OR NO CLOUDS BELOW 12,000 FEET WITH NO
SIGNIFICANT WEATHER AND/OR OBSTRUCTIONS TO VISIBILITY.

* - THESE STATIONS ARE NOT NWS STATIONS...THUS NOT UNDER NWS
QUALITY CONTROL.  THEY ALSO DO NOT REPORT WEATHER SUCH 
AS PRECIPITATION OR FOG.  

IAZ001>003-012>014-020>022-031>034-043>046-190500-
   NORTHWEST IOWA
  
CITY           SKY/WX    TMP DP  RH WIND       PRES   REMARKS
CARROLL *      MOCLDY    34  30  86 CALM      30.32F                  
CHEROKEE *     CLOUDY    32  28  84 CALM      30.31R                  
DENISON *      CLOUDY    32  28  86 CALM      30.33S                  
LE MARS *      CLOUDY    32  30  93 S7        30.29S WCI  26          
SHELDON *      CLOUDY    34  34 100 S10       30.26F WCI  26          
SIOUX CITY     CLOUDY    36  28  73 S9        30.30S WCI  29          
SPENCER        PTCLDY    34  26  72 S9        30.29S WCI  27          
STORM LAKE *   CLOUDY    32  28  86 S9        30.27S WCI  24          
$$
 
IAZ055>058-069>071-079>083-090>094-190500-
   SOUTHWEST IOWA
  
CITY           SKY/WX    TMP DP  RH WIND       PRES   REMARKS
ATLANTIC *     CLOUDY    32  32 100 CALM      30.33S                  
AUDUBON *      CLOUDY    30  27  86 CALM      30.34S                  
CLARINDA *     CLOUDY    34  30  86 CALM      30.37S                  
COUNCIL BLFS * CLOUDY    37  21  52 SE3       30.32S                  
CRESTON *      PTCLDY    36  23  60 S5        30.34R WCI  32          
HARLAN  *      CLOUDY    34  28  80 CALM      30.33S                  
LAMONI         CLOUDY    39  21  48 SE5       30.34F                  
RED OAK *      CLOUDY    34  30  86 CALM      30.34S                  
SHENANDOAH *   CLOUDY    37  27  65 CALM      30.33F                  
$$
 
IAZ047>049-059>061-072>074-084-190500-
   CENTRAL IOWA
  
CITY           SKY/WX    TMP DP  RH WIND       PRES   REMARKS
AMES           CLOUDY    30  26  85 CALM      30.34F                  
ANKENY *       PTCLDY    30  27  86 CALM      30.36F                  
BOONE *        CLOUDY    36  28  75 S5        30.33S WCI  32          
CHARITON *     CLOUDY    36  23  60 SE5       30.36S WCI  32          
DES MOINES     PTCLDY    37  21  52 SE7       30.36S WCI  32          
GRINNELL*      CLOUDY    32  26  78 CALM      30.37S                  
KNOXVILLE *    CLOUDY    36  23  60 S6        30.36S WCI  31          
MARSHALLTOWN   CLOUDY    30  27  88 SE5       30.34S WCI  25          
NEWTON *       CLOUDY    34  28  80 SE6       30.35F WCI  29          
PELLA *        PTCLDY    34  24  67 SE3       30.37F                  
PERRY *        FAIR      35  30  82 CALM      30.34S                  
$$
 
IAZ004>006-015-016-023>025-035-036-190500-
   NORTH CENTRAL IOWA
  
CITY           SKY/WX    TMP DP  RH WIND       PRES   REMARKS
ALGONA *       PTCLDY    32  32 100 S8        30.29F WCI  25          
CLARION *      PTCLDY    32  30  93 S8        30.32F WCI  25          
ESTHERVILLE    PTCLDY    30  27  88 S7        30.28F WCI  23          
FORT DODGE *   PTCLDY    30  26  85 S3        30.33S                  
MASON CITY     CLOUDY    29  27  92 CALM      30.33S                  
FOREST CITY *  FAIR      30  30 100 CALM      30.32S                  
IOWA FALLS *   FAIR      33  29  85 S7        30.34S WCI  27          
$$

IAZ007>011-017>019-026>030-037>042-050>054-066-190500-
   NORTHEAST IOWA
  
CITY           SKY/WX    TMP DP  RH WIND       PRES   REMARKS
CEDAR RAPIDS   FAIR      30  28  92 CALM      30.35F                  
CHARLES CITY * FAIR      32  28  86 SW3       30.33S                  
CLINTON *      FAIR      33  28  81 W5        30.37F WCI  29          
DECORAH *      FAIR      34  32  93 CALM      30.31S                  
DUBUQUE        FAIR      29  24  82 SW6       30.34F WCI  23          
OELWEIN *      FAIR      30  28  93 S5        30.34S WCI  25          
$$
 
IAZ064-065-067-068-078-190500-
   EAST CENTRAL IOWA
  
CITY           SKY/WX    TMP DP  RH WIND       PRES   REMARKS
DAVENPORT      FAIR      32  26  78 SW3       30.39S                  
IOWA CITY      FAIR      30  25  81 CALM      30.39S                  
MT. PLEASANT * CLOUDY    34  30  86 CALM      30.39R                  
MUSCATINE *    FAIR      32  27  80 CALM      30.40R                  
QUAD CITIES    FAIR      31  27  85 CALM      30.38S                  
$$
 
IAZ062-063-075>077-085>089-095>099-190500-
   SOUTHEAST IOWA
  
CITY           SKY/WX    TMP DP  RH WIND       PRES   REMARKS
BURLINGTON     CLOUDY    35  23  61 CALM      30.38S                  
FAIRFIELD *    PTCLDY    34  25  69 SE3       30.37F                  
FORT MADISON * CLOUDY    37  25  60 SE3       30.40R                  
KEOKUK *       PTCLDY    36  25  64 CALM      30.39R                  
OSKALOOSA *    FAIR      34  27  76 SE7       30.38S WCI  28          
CENTERVILLE *  FAIR      36  23  60 CALM      30.38S                  
OTTUMWA        PTCLDY    32  23  69 SE6       30.37S WCI  26          
WASHINGTON *   CLEAR     36  25  64 SW5       30.39S WCI  32          
$$

ABBREVIATIONS USED IN REMARKS
   TC - TEMPERATURES IN CELSIUS
  WCI - WIND CHILL INDEX
   HX - HEAT INDEX
  VSB - VISIBILITY  
$$